Location: Seasalter
(51.3333°N, 1.0167°E)
Time: 14:22:51
(UTC+00:00)

ATLAS 5 CENTAUR R/B - Pass Details

Date: 23 April 2024
Orbit: 421 x 1169 km, 63.3° (Epoch: 22 May)

Event Time Altitude Azimuth Distance (km) Brightness Sun altitude
Rises 21:53:30 0° 299° (WNW) 2,580 5.8 -20.6°
Maximum altitude 21:58:49 17° 3° (N) 1,532 4.3 -21.0°
Drops below altitude 10° 22:01:47 10° 44° (NE) 2,058 4.4 -21.3°
Sets 22:05:09 0° 64° (ENE) 3,145 5.2 -21.5°
